sat.trackr.live / text

‹ back to catalog

JILIN-1 10

NORAD 43946 · 2019-005E

PAYLOAD ACTIVE UNKNOWN

§ Identity

Operator
Country
PRC
Launch date
2019-01-21
Launch site
JSC
Launch vehicle
Mass (kg)
RCS (m²)

External: N2YO · Heavens-Above · Gunter

§ Orbital elements

Epoch: 2026-09-20T04:41:43.189728Z

Period
94.33 min
Inclination
97.4796°
Eccentricity
0.0006727
Mean motion
15.26616603 rev/d
Perigee alt
481.3 km
Apogee alt
490.6 km
Semi-major
6,864.1 km
B*
1.4582e-4
RAAN
2.0686°
Arg perigee
310.8786°
Mean anomaly
49.1869°
Rev number
42,380

§ Raw data

JILIN-1 101 43946U 19005E   26263.19563877  .00003746  00000+0  14582-3 0  99982 43946  97.4796   2.0686 0006727 310.8786  49.1869 15.26616603423807

JSON: /api/v1/satellites/43946 · /tle

For live sub-satellite position, see the globe view (requires WebGL).

§ Visibility from observer

Set your observer location to see the next 7 days of passes ≥ 10°. The values pass through the URL so the page stays shareable.

No JS? Fill the form by hand. The geolocation button needs JavaScript.

§ Radio — SatNOGS DB

ModeDescriptionDownlinkUplink
FM S-band telemetry 2.245 GHz

1 transmitter · refreshed weekly from db.satnogs.org